CW5689 Weather Reports


Display with metric or nautical units.
time (UTC)temp
F
wind
direction
speed
MPH
gust
MPH
rain 1hr
in
rain 24hr
in
rain mn
in
humidity
%
barometer
mb
20260904144544 82 80 2.0 5.0 0.00 0.01 0.00 81 1010.6
20260904144511 82 80 2.0 0.0 0.00 0.01 0.00 81 1009.8
20260904144018 81 77 2.0 5.0 0.00 0.01 0.00 83 1010.7
20260904144011 82 77 3.0 0.0 0.00 0.01 0.00 82 1009.9
20260904143521 81 72 2.0 4.0 0.00 0.01 0.00 85 1010.8
20260904143511 81 72 3.0 0.0 0.00 0.01 0.00 84 1009.9
20260904143040 80 60 1.0 6.0 0.00 0.01 0.00 86 1010.7
20260904143011 81 60 3.0 1.0 0.00 0.01 0.00 85 1009.9
20260904142521 80 79 3.0 6.0 0.00 0.01 0.00 85 1010.8
20260904142511 80 79 3.0 1.0 0.00 0.01 0.00 85 1009.9
20260904142019 79 78 3.0 6.0 0.00 0.01 0.00 86 1010.8
20260904142011 80 78 3.0 1.0 0.00 0.01 0.00 86 1010.0
20260904141545 79 74 3.0 6.0 0.00 0.01 0.00 87 1010.8
20260904141511 79 74 3.0 1.0 0.00 0.01 0.00 87 1009.9
20260904141023 78 76 3.0 4.0 0.00 0.01 0.00 88 1010.8
20260904140526 78 73 2.0 4.0 0.00 0.01 0.00 89 1010.9
20260904140511 78 73 3.0 0.0 0.00 0.01 0.00 88 1010.0
20260904140046 77 69 2.0 4.0 0.00 0.01 0.00 89 1011.0
20260904140011 78 69 3.0 0.0 0.00 0.01 0.00 89 1010.1
20260904135524 77 61 1.0 3.0 0.00 0.01 0.00 90 1010.9
20260904135511 77 61 2.0 0.0 0.00 0.01 0.00 90 1010.0
20260904135024 76 0 0.0 2.0 0.00 0.01 0.00 91 1010.9
20260904135011 77 32 0.0 0.0 0.00 0.01 0.00 90 1010.0
20260904134543 76 0 0.0 0.0 0.00 0.01 0.00 92 1010.8
20260904134511 76 30 0.0 0.0 0.00 0.01 0.00 92 1010.0
20260904134025 75 0 0.0 0.0 0.00 0.01 0.00 93 1010.8
20260904133523 74 0 0.0 0.0 0.00 0.01 0.00 93 1010.8
20260904133041 74 0 0.0 0.0 0.00 0.01 0.00 94 1010.8
20260904133011 74 30 0.0 0.0 0.00 0.01 0.00 93 1010.0
20260904132525 73 0 0.0 0.0 0.00 0.01 0.00 93 1010.8
20260904132511 74 30 0.0 0.0 0.00 0.01 0.00 92 1010.0
20260904132025 73 0 0.0 0.0 0.00 0.01 0.00 93 1010.6
20260904132011 74 30 0.0 0.0 0.00 0.01 0.00 92 1009.8
20260904131555 73 0 0.0 0.0 0.00 0.01 0.00 93 1010.6
20260904131025 73 0 0.0 0.0 0.00 0.01 0.00 93 1010.4
20260904131011 73 29 0.0 0.0 0.00 0.01 0.00 92 1009.6
20260904130523 73 0 0.0 3.0 0.00 0.01 0.00 93 1010.3
20260904130511 73 29 0.0 0.0 0.00 0.01 0.00 92 1009.5
20260904130040 73 0 0.0 3.0 0.00 0.01 0.00 93 1010.3
20260904125521 72 29 1.0 3.0 0.00 0.04 0.00 93 1010.2
20260904125511 73 29 2.0 0.0 0.00 0.04 0.00 93 1009.4
20260904125023 72 0 0.0 0.0 0.00 0.04 0.00 93 1010.3
20260904125011 73 268 0.0 0.0 0.00 0.04 0.00 93 1009.5
20260904124537 72 0 0.0 0.0 0.00 0.04 0.00 93 1010.3
20260904124511 72 264 0.0 0.0 0.00 0.04 0.00 92 1009.5
20260904124024 72 0 0.0 0.0 0.00 0.04 0.00 93 1010.4
20260904124011 72 264 0.0 0.0 0.00 0.04 0.00 92 1009.5
20260904123524 72 0 0.0 0.0 0.00 0.04 0.00 93 1010.2
20260904123511 72 264 0.0 0.0 0.00 0.04 0.00 92 1009.4
20260904123040 72 0 0.0 0.0 0.00 0.04 0.00 93 1010.2
20260904123011 72 263 0.0 0.0 0.00 0.04 0.00 92 1009.4
20260904122519 72 0 0.0 0.0 0.00 0.04 0.00 93 1010.2
20260904122019 72 0 0.0 0.0 0.00 0.04 0.00 93 1010.1
20260904122011 72 263 0.0 0.0 0.00 0.04 0.00 92 1009.4
20260904121539 71 0 0.0 0.0 0.00 0.04 0.00 93 1010.2
20260904121511 72 263 0.0 0.0 0.00 0.04 0.00 92 1009.4
20260904121020 71 0 0.0 0.0 0.00 0.04 0.00 93 1010.1
20260904121011 72 263 0.0 0.0 0.00 0.04 0.00 92 1009.3
20260904120523 71 0 0.0 0.0 0.00 0.04 0.00 93 1010.1
20260904120511 72 263 0.0 0.0 0.00 0.04 0.00 92 1009.2
20260904120048 71 0 0.0 0.0 0.00 0.04 0.00 93 1010.1
20260904120011 72 263 0.0 0.0 0.00 0.04 0.00 92 1009.2
20260904115519 71 0 0.0 0.0 0.00 0.04 0.00 92 1010.0
20260904115511 72 263 0.0 0.0 0.00 0.04 0.00 92 1009.2
20260904115019 71 0 0.0 0.0 0.00 0.04 0.00 92 1010.1
20260904115011 72 263 0.0 0.0 0.00 0.04 0.00 92 1009.1
20260904114538 71 0 0.0 0.0 0.00 0.04 0.00 92 1009.9
20260904114511 72 263 0.0 0.0 0.00 0.04 0.00 92 1009.1
20260904114019 71 0 0.0 0.0 0.00 0.04 0.00 92 1010.0
20260904114011 72 261 0.0 0.0 0.00 0.04 0.00 92 1009.1
20260904113518 71 0 0.0 0.0 0.00 0.04 0.00 92 1009.9
20260904113511 72 261 0.0 0.0 0.00 0.04 0.00 91 1009.0
20260904113041 71 0 0.0 0.0 0.00 0.04 0.00 92 1009.8
20260904112519 71 0 0.0 0.0 0.00 0.04 0.00 92 1009.7
20260904112511 72 261 0.0 0.0 0.00 0.04 0.00 91 1008.9
20260904112024 71 0 0.0 0.0 0.00 0.04 0.00 92 1009.7
20260904112011 72 261 0.0 0.0 0.00 0.04 0.00 91 1008.9
20260904111543 72 0 0.0 0.0 0.00 0.04 0.00 92 1009.7
20260904111018 72 0 0.0 0.0 0.00 0.04 0.00 92 1009.6
20260904111011 72 261 0.0 0.0 0.00 0.04 0.00 92 1008.7
20260904110521 72 0 0.0 0.0 0.00 0.04 0.00 92 1009.6
20260904110511 72 261 0.0 0.0 0.00 0.04 0.00 92 1008.8
20260904110037 72 0 0.0 0.0 0.00 0.04 0.00 92 1009.7
20260904110011 72 261 0.0 0.0 0.00 0.04 0.00 92 1008.8
20260904105519 72 0 0.0 0.0 0.00 0.04 0.00 92 1009.6
20260904105511 72 261 0.0 0.0 0.00 0.04 0.00 92 1008.8
20260904105019 72 0 0.0 0.0 0.00 0.04 0.00 92 1009.6
20260904105011 72 261 0.0 0.0 0.00 0.04 0.00 92 1008.8
20260904104540 72 0 0.0 0.0 0.00 0.04 0.00 92 1009.8
20260904104511 72 261 0.0 0.0 0.00 0.04 0.00 92 1008.9
20260904104019 72 0 0.0 0.0 0.00 0.04 0.00 92 1009.7
20260904104011 72 261 0.0 0.0 0.00 0.04 0.00 92 1008.8
20260904103523 72 0 0.0 0.0 0.00 0.04 0.00 92 1009.6
20260904103511 72 261 0.0 0.0 0.00 0.04 0.00 92 1008.8
20260904103056 72 0 0.0 0.0 0.00 0.04 0.00 92 1009.9
20260904103011 72 261 0.0 0.0 0.00 0.04 0.00 92 1009.0
20260904102519 72 0 0.0 0.0 0.00 0.04 0.00 92 1009.7
20260904102511 72 261 0.0 0.0 0.00 0.04 0.00 92 1008.9
20260904102019 72 0 0.0 0.0 0.00 0.04 0.00 92 1009.8
20260904101539 72 0 0.0 0.0 0.00 0.04 0.00 92 1009.7
20260904101022 72 0 0.0 0.0 0.00 0.04 0.00 92 1009.8
20260904101011 72 188 0.0 0.0 0.00 0.04 0.00 91 1008.9
20260904100519 72 0 0.0 0.0 0.00 0.04 0.00 92 1009.7
20260904100510 72 184 0.0 0.0 0.00 0.04 0.00 91 1009.0
20260904100040 72 0 0.0 0.0 0.00 0.04 0.00 92 1009.8
20260904095519 72 0 0.0 0.0 0.00 0.04 0.00 92 1009.7
20260904095510 72 184 0.0 0.0 0.00 0.04 0.00 91 1008.8
20260904095020 72 0 0.0 0.0 0.00 0.04 0.00 91 1009.8
20260904095010 72 184 0.0 0.0 0.00 0.04 0.00 91 1008.8
20260904094540 72 0 0.0 0.0 0.00 0.04 0.00 91 1009.7
20260904094019 72 0 0.0 0.0 0.00 0.04 0.00 91 1009.7
20260904094010 72 184 0.0 0.0 0.00 0.04 0.00 91 1008.8
20260904093526 72 0 0.0 0.0 0.00 0.04 0.00 91 1009.6
20260904093510 73 184 0.0 0.0 0.00 0.04 0.00 91 1008.7
20260904093041 72 0 0.0 0.0 0.00 0.04 0.00 91 1009.5
20260904093010 73 184 0.0 0.0 0.00 0.04 0.00 91 1008.7
20260904092521 72 0 0.0 0.0 0.00 0.04 0.00 91 1009.4
20260904092510 73 184 0.0 0.0 0.00 0.04 0.00 91 1008.6
20260904092020 72 0 0.0 0.0 0.00 0.04 0.00 91 1009.3
20260904092010 73 184 0.0 0.0 0.00 0.04 0.00 91 1008.5
20260904091546 73 0 0.0 0.0 0.00 0.04 0.00 91 1009.3
20260904091510 73 184 0.0 0.0 0.00 0.04 0.00 91 1008.5
20260904091020 73 0 0.0 0.0 0.00 0.04 0.00 91 1009.3
20260904091011 73 184 0.0 0.0 0.00 0.04 0.00 90 1008.5
20260904090518 73 0 0.0 0.0 0.00 0.04 0.00 91 1009.3
20260904090510 73 184 0.0 0.0 0.00 0.04 0.00 91 1008.5
20260904090037 73 0 0.0 0.0 0.00 0.04 0.00 91 1009.2
20260904090010 73 184 0.0 0.0 0.00 0.04 0.00 91 1008.5
20260904085519 73 0 0.0 0.0 0.00 0.04 0.00 91 1009.2
20260904085510 73 184 0.0 0.0 0.00 0.04 0.00 90 1008.4
20260904085020 73 0 0.0 0.0 0.00 0.04 0.00 91 1009.1
20260904085010 73 184 0.0 0.0 0.00 0.04 0.00 91 1008.4
20260904084541 73 0 0.0 0.0 0.00 0.04 0.00 91 1009.2
20260904084510 74 184 0.0 0.0 0.00 0.04 0.00 91 1008.4
20260904084023 73 0 0.0 0.0 0.00 0.04 0.00 91 1009.2
20260904084010 74 184 0.0 0.0 0.00 0.04 0.00 91 1008.4
20260904083523 73 0 0.0 0.0 0.00 0.04 0.00 91 1009.2
20260904083510 74 184 0.0 0.0 0.00 0.04 0.00 91 1008.4
20260904083103 73 0 0.0 0.0 0.00 0.04 0.00 91 1009.2
20260904083011 74 184 0.0 0.0 0.00 0.04 0.00 91 1008.4
20260904082521 73 0 0.0 0.0 0.00 0.04 0.00 91 1009.1
20260904082511 74 184 0.0 0.0 0.00 0.04 0.00 91 1008.3
20260904082021 73 0 0.0 0.0 0.00 0.04 0.00 91 1009.1
20260904082011 74 184 0.0 0.0 0.00 0.04 0.00 90 1008.3
20260904081539 73 0 0.0 0.0 0.00 0.04 0.00 91 1009.1
20260904081511 74 184 0.0 0.0 0.00 0.04 0.00 90 1008.3
20260904081019 73 0 0.0 0.0 0.00 0.04 0.00 91 1009.1
20260904081011 74 184 0.0 0.0 0.00 0.04 0.00 90 1008.3
20260904080520 73 0 0.0 0.0 0.00 0.04 0.00 91 1009.0
20260904080510 74 184 0.0 0.0 0.00 0.04 0.00 90 1008.2
20260904080038 73 0 0.0 0.0 0.00 0.04 0.00 91 1009.0
20260904080010 74 184 0.0 0.0 0.00 0.04 0.00 90 1008.2
20260904075519 74 0 0.0 0.0 0.00 0.04 0.00 91 1009.0
20260904075510 74 184 0.0 0.0 0.00 0.04 0.00 90 1008.2
20260904075017 74 0 0.0 0.0 0.00 0.04 0.00 90 1008.9
20260904075011 74 184 0.0 0.0 0.00 0.04 0.00 90 1008.2
20260904074601 74 0 0.0 0.0 0.00 0.04 0.00 91 1009.0
20260904074511 74 184 0.0 0.0 0.00 0.04 0.00 90 1008.2
20260904074023 74 0 0.0 0.0 0.00 0.04 0.00 91 1008.9
20260904074011 74 184 0.0 0.0 0.00 0.04 0.00 90 1008.2
20260904073521 74 0 0.0 0.0 0.00 0.04 0.00 90 1009.0
20260904073510 74 184 0.0 0.0 0.00 0.04 0.00 90 1008.2
20260904073043 74 0 0.0 0.0 0.00 0.04 0.00 90 1009.0
20260904072522 74 0 0.0 0.0 0.00 0.04 0.00 90 1009.0
20260904072019 74 0 0.0 0.0 0.00 0.04 0.00 90 1009.0
20260904072010 74 184 0.0 0.0 0.00 0.04 0.00 90 1008.2
20260904071539 74 0 0.0 0.0 0.00 0.04 0.00 90 1008.9
20260904071510 74 184 0.0 0.0 0.00 0.04 0.00 89 1008.2
20260904071018 74 0 0.0 0.0 0.00 0.04 0.00 90 1009.0
20260904070520 74 0 0.0 0.0 0.00 0.04 0.00 89 1009.1
20260904070042 74 0 0.0 0.0 0.00 0.04 0.00 89 1009.1
20260904070010 75 184 0.0 0.0 0.00 0.04 0.00 89 1008.4
20260904065524 74 0 0.0 0.0 0.00 0.04 0.00 89 1009.2
20260904065510 75 184 0.0 0.0 0.00 0.04 0.00 89 1008.4
20260904065024 75 0 0.0 0.0 0.00 0.04 0.00 89 1009.2
20260904065010 75 184 0.0 0.0 0.00 0.04 0.00 89 1008.4
20260904064546 75 0 0.0 0.0 0.00 0.04 0.00 89 1009.2
20260904064510 75 184 0.0 0.0 0.00 0.04 0.00 88 1008.5
20260904064018 75 0 0.0 0.0 0.00 0.04 0.00 89 1009.2
20260904064010 75 184 0.0 0.0 0.00 0.04 0.00 88 1008.5
20260904063521 75 0 0.0 0.0 0.00 0.04 0.00 89 1009.2
20260904063510 76 184 0.0 0.0 0.00 0.04 0.00 89 1008.5
20260904063045 75 0 0.0 0.0 0.00 0.04 0.00 89 1009.3
20260904062526 75 0 0.0 0.0 0.00 0.04 0.00 89 1009.2
20260904062021 75 0 0.0 0.0 0.00 0.04 0.00 89 1009.3
20260904062010 76 184 0.0 0.0 0.00 0.04 0.00 88 1008.5
20260904061541 75 0 0.0 0.0 0.00 0.04 0.00 89 1009.3
20260904061510 76 184 0.0 0.0 0.00 0.04 0.00 88 1008.5
20260904061020 76 0 0.0 0.0 0.00 0.04 0.00 88 1009.2
20260904060519 76 0 0.0 0.0 0.00 0.04 0.00 88 1009.3
20260904060510 76 184 0.0 0.0 0.00 0.04 0.00 88 1008.6
20260904060042 76 0 0.0 0.0 0.00 0.04 0.00 88 1009.3
20260904060010 76 184 0.0 0.0 0.00 0.04 0.00 88 1008.5
20260904055519 76 0 0.0 0.0 0.00 0.04 0.00 88 1009.3
20260904055510 76 184 0.0 0.0 0.00 0.04 0.00 88 1008.4
20260904055020 76 0 0.0 0.0 0.00 0.04 0.00 88 1009.4
20260904055010 76 184 0.0 0.0 0.00 0.04 0.00 88 1008.5
20260904054541 76 0 0.0 0.0 0.00 0.04 0.00 88 1009.4
20260904054510 76 184 0.0 0.0 0.00 0.04 0.00 88 1008.6
20260904054019 76 0 0.0 0.0 0.00 0.04 0.00 88 1009.4
20260904054010 76 184 0.0 0.0 0.00 0.04 0.00 87 1008.6
20260904053519 76 0 0.0 0.0 0.00 0.04 0.00 88 1009.4
20260904053510 77 184 0.0 0.0 0.00 0.04 0.00 87 1008.6
20260904053041 76 0 0.0 0.0 0.00 0.04 0.00 88 1009.4
20260904053011 77 184 0.0 0.0 0.00 0.04 0.00 87 1008.7
20260904052521 76 0 0.0 0.0 0.00 0.04 0.00 87 1009.3
20260904052510 77 184 0.0 0.0 0.00 0.04 0.00 87 1008.6
20260904052024 76 0 0.0 0.0 0.00 0.04 0.00 87 1009.3
20260904052010 77 184 0.0 0.0 0.00 0.04 0.00 87 1008.5
20260904051539 77 0 0.0 0.0 0.00 0.04 0.00 87 1009.3
20260904051510 77 184 0.0 0.0 0.00 0.04 0.00 87 1008.5
20260904051025 77 0 0.0 0.0 0.00 0.04 0.00 87 1009.3
20260904051010 77 184 0.0 0.0 0.00 0.04 0.00 87 1008.5
20260904050520 77 0 0.0 0.0 0.00 0.04 0.00 87 1009.1
20260904050042 77 0 0.0 0.0 0.00 0.04 0.00 87 1009.1
20260904050010 77 184 0.0 0.0 0.00 0.04 0.00 87 1008.3
20260904045524 77 0 0.0 3.0 0.00 0.04 0.04 87 1009.0
20260904045510 77 184 0.0 0.0 0.00 0.04 0.04 86 1008.2
20260904045026 77 0 0.0 4.0 0.00 0.04 0.04 87 1009.0
20260904045010 77 184 0.0 0.0 0.00 0.04 0.04 86 1008.2
20260904044541 77 0 1.0 8.0 0.00 0.04 0.04 87 1008.9
20260904044018 77 0 2.0 8.0 0.00 0.04 0.04 87 1008.8
20260904044010 77 172 0.0 1.0 0.00 0.04 0.04 86 1008.0
20260904043524 77 190 2.0 8.0 0.00 0.04 0.04 87 1008.7
20260904043510 77 143 4.0 1.0 0.00 0.04 0.04 86 1008.0
20260904043038 77 187 2.0 8.0 0.00 0.04 0.04 87 1008.8
20260904043010 77 187 2.0 1.0 0.00 0.04 0.04 86 1008.0
20260904042521 77 167 3.0 8.0 0.00 0.04 0.04 87 1008.8
20260904042021 77 159 2.0 5.0 0.00 0.04 0.04 86 1008.7
20260904042010 77 159 4.0 0.0 0.00 0.04 0.04 86 1008.0
20260904041543 77 186 1.0 6.0 0.00 0.04 0.04 86 1008.7
20260904041510 77 186 2.0 0.0 0.00 0.04 0.04 86 1008.1
20260904041023 77 186 0.0 7.0 0.00 0.04 0.04 86 1008.8
20260904041010 77 186 2.0 1.0 0.00 0.04 0.04 85 1008.1
20260904040521 77 168 1.0 7.0 0.00 0.04 0.04 86 1008.9
20260904040511 77 168 3.0 1.0 0.00 0.04 0.04 85 1008.1
20260904040055 77 165 3.0 7.0 0.00 0.04 0.04 86 1008.9
20260904040010 77 165 3.0 1.0 0.00 0.04 0.04 85 1008.2
20260904035524 77 199 2.0 6.0 0.00 0.04 0.04 86 1009.0
20260904035510 77 199 3.0 1.0 0.00 0.04 0.04 85 1008.2
20260904035017 77 0 1.0 7.0 0.00 0.04 0.04 85 1009.0
20260904035011 77 153 0.0 1.0 0.00 0.04 0.04 85 1008.3
20260904034544 77 186 3.0 7.0 0.00 0.04 0.04 85 1008.9
20260904034021 77 185 2.0 5.0 0.00 0.04 0.04 85 1009.0
20260904034010 77 185 3.0 0.0 0.00 0.04 0.04 85 1008.3
20260904033519 77 219 1.0 4.0 0.00 0.04 0.04 85 1009.1
20260904033510 77 219 2.0 0.0 0.00 0.04 0.04 84 1008.3
20260904033041 77 218 2.0 5.0 0.00 0.04 0.04 85 1009.1
20260904032519 77 218 2.0 6.0 0.00 0.04 0.04 84 1009.0
20260904032510 78 218 2.0 0.0 0.00 0.04 0.04 84 1008.2
20260904032019 77 209 2.0 6.0 0.00 0.04 0.04 84 1009.1
20260904032010 78 209 3.0 1.0 0.00 0.04 0.04 83 1008.3
20260904031541 77 205 2.0 6.0 0.00 0.04 0.04 84 1009.2
20260904031510 78 205 4.0 1.0 0.00 0.04 0.04 83 1008.3
20260904031020 77 195 1.0 5.0 0.00 0.04 0.04 84 1009.2
20260904031010 78 194 3.0 0.0 0.00 0.04 0.04 83 1008.3
20260904030520 77 188 2.0 4.0 0.00 0.04 0.04 83 1009.2
20260904030511 78 188 2.0 0.0 0.00 0.04 0.04 83 1008.4
20260904030045 77 186 2.0 5.0 0.00 0.04 0.04 83 1009.2
20260904030010 78 186 3.0 0.0 0.00 0.04 0.04 83 1008.4
20260904025523 77 178 2.0 5.0 0.00 0.04 0.04 83 1009.2
20260904025510 78 178 2.0 0.0 0.00 0.04 0.04 82 1008.5
20260904025024 78 0 0.0 0.0 0.00 0.04 0.04 83 1009.3
20260904025010 78 182 0.0 0.0 0.00 0.04 0.04 82 1008.5
20260904024539 78 0 0.0 0.0 0.00 0.04 0.04 82 1009.3
20260904024511 78 180 0.0 0.0 0.00 0.04 0.04 82 1008.5
20260904024021 78 0 0.0 0.0 0.00 0.04 0.04 82 1009.4
20260904023520 78 0 0.0 0.0 0.00 0.04 0.04 82 1009.3
20260904023510 78 180 0.0 0.0 0.00 0.04 0.04 82 1008.5
20260904023047 78 0 0.0 0.0 0.00 0.04 0.04 82 1009.4
20260904023010 78 180 0.0 0.0 0.00 0.04 0.04 82 1008.7
20260904022519 78 0 0.0 0.0 0.00 0.04 0.04 82 1009.5
20260904022510 78 180 0.0 0.0 0.00 0.04 0.04 81 1008.6
20260904022019 78 0 0.0 0.0 0.00 0.04 0.04 82 1009.4
20260904021543 78 0 0.0 0.0 0.00 0.04 0.04 82 1009.5
20260904021511 78 180 0.0 0.0 0.00 0.04 0.04 81 1008.6
20260904021024 78 0 0.0 0.0 0.00 0.04 0.04 82 1009.5
20260904021010 79 180 0.0 0.0 0.00 0.04 0.04 81 1008.5
20260904020523 78 0 0.0 0.0 0.00 0.04 0.04 82 1009.4
20260904020510 79 180 0.0 0.0 0.00 0.04 0.04 81 1008.5
20260904020037 78 0 0.0 0.0 0.00 0.04 0.04 82 1009.3
20260904020011 79 180 0.0 0.0 0.00 0.04 0.04 81 1008.5
20260904015526 78 0 0.0 0.0 0.00 0.04 0.04 81 1009.4
20260904015511 79 180 0.0 0.0 0.00 0.04 0.04 81 1008.6
20260904015027 78 0 0.0 0.0 0.00 0.04 0.04 81 1009.3
20260904015010 79 180 0.0 0.0 0.00 0.04 0.04 81 1008.5
20260904014614 78 0 0.0 0.0 0.00 0.04 0.04 80 1009.3
20260904014511 79 180 0.0 0.0 0.00 0.04 0.04 80 1008.4
20260904014023 79 0 0.0 0.0 0.00 0.04 0.04 80 1009.2
20260904014011 79 180 0.0 0.0 0.00 0.04 0.04 79 1008.4
20260904013521 79 0 0.0 1.0 0.00 0.04 0.04 80 1009.2
20260904013510 79 180 0.0 0.0 0.00 0.04 0.04 79 1008.3
20260904013041 79 0 0.0 1.0 0.00 0.04 0.04 79 1009.1
20260904013010 79 180 0.0 0.0 0.00 0.04 0.04 79 1008.2
20260904012520 79 0 0.0 0.0 0.00 0.04 0.04 79 1009.0
20260904012511 80 180 0.0 0.0 0.00 0.04 0.04 79 1008.1
20260904012021 79 0 0.0 2.0 0.00 0.04 0.04 78 1008.9
20260904012010 80 180 0.0 0.0 0.00 0.04 0.04 78 1008.0
20260904011540 79 0 0.0 2.0 0.00 0.04 0.04 78 1008.7
20260904011510 80 180 0.0 0.0 0.00 0.04 0.04 77 1008.0
20260904011018 79 0 0.0 2.0 0.00 0.04 0.04 78 1008.7
20260904011010 80 180 0.0 0.0 0.00 0.04 0.04 77 1007.9
20260904010519 80 0 0.0 5.0 0.00 0.04 0.04 77 1008.6
20260904010510 80 180 0.0 0.0 0.00 0.04 0.04 76 1007.8
20260904010049 80 0 0.0 5.0 0.00 0.04 0.04 77 1008.5
20260904010011 80 180 0.0 0.0 0.00 0.04 0.04 76 1007.8
20260904005519 80 178 1.0 10.0 0.00 0.04 0.04 77 1008.6
20260904005510 80 184 3.0 1.0 0.00 0.04 0.04 76 1007.8
20260904005017 80 174 2.0 10.0 0.00 0.04 0.04 77 1008.4
20260904005010 80 174 2.0 1.0 0.00 0.04 0.04 76 1007.7
20260904004540 80 180 1.0 7.0 0.00 0.04 0.04 76 1008.3
20260904004510 80 180 2.0 1.0 0.00 0.04 0.04 76 1007.6
20260904004019 80 178 0.0 7.0 0.00 0.04 0.04 76 1008.5
20260904004011 81 168 0.0 1.0 0.00 0.04 0.04 76 1007.7
20260904003519 80 168 1.0 7.0 0.00 0.04 0.04 76 1008.5
20260904003511 81 168 2.0 1.0 0.00 0.04 0.04 76 1007.7
20260904003038 80 151 2.0 7.0 0.00 0.04 0.04 76 1008.5
20260904003010 81 151 2.0 1.0 0.00 0.04 0.04 75 1007.8
20260904002518 81 169 1.0 8.0 0.00 0.04 0.04 76 1008.6
20260904002510 81 169 2.0 1.0 0.00 0.04 0.04 75 1007.8
20260904002021 81 182 1.0 8.0 0.00 0.04 0.04 76 1008.6
20260904002010 81 182 5.0 1.0 0.00 0.04 0.04 75 1007.8
20260904001539 81 181 2.0 7.0 0.00 0.04 0.04 76 1008.7
20260904001511 81 181 1.0 0.0 0.00 0.04 0.04 75 1007.9
20260904001020 81 182 0.0 10.0 0.00 0.04 0.04 76 1008.6
20260904001011 81 182 3.0 1.0 0.00 0.04 0.04 75 1007.9
20260904000520 81 185 3.0 11.0 0.00 0.04 0.04 75 1008.6
20260904000510 81 185 2.0 1.0 0.00 0.04 0.04 75 1007.9
20260904000045 81 201 2.0 12.0 0.00 0.04 0.04 75 1008.6
20260903235520 81 159 4.0 12.0 0.00 0.04 0.04 75 1008.5
20260903235510 82 168 1.0 1.0 0.00 0.04 0.04 74 1007.8
20260903235019 81 154 2.0 7.0 0.00 0.04 0.04 75 1008.4
20260903235011 82 154 1.0 1.0 0.00 0.04 0.04 74 1007.7
20260903234545 81 164 1.0 5.0 0.00 0.04 0.04 75 1008.4
20260903234511 82 164 3.0 0.0 0.00 0.04 0.04 74 1007.7
20260903234024 81 165 1.0 6.0 0.00 0.04 0.04 75 1008.4
20260903234010 82 166 0.0 1.0 0.00 0.04 0.04 74 1007.6
20260903233521 82 135 1.0 7.0 0.00 0.04 0.04 74 1008.4
20260903233054 82 0 1.0 7.0 0.00 0.04 0.04 73 1008.1
20260903233010 82 143 0.0 1.0 0.00 0.04 0.04 73 1007.3
20260903232520 82 178 0.0 7.0 0.00 0.04 0.04 73 1008.2
20260903232510 82 177 1.0 1.0 0.00 0.04 0.04 73 1007.4
20260903232020 82 0 2.0 8.0 0.00 0.04 0.04 72 1008.1
20260903232010 82 170 0.0 1.0 0.00 0.04 0.04 72 1007.4
20260903231541 82 154 2.0 8.0 0.00 0.04 0.04 73 1008.1
20260903231511 82 176 3.0 1.0 0.00 0.04 0.04 72 1007.3
20260903231020 82 211 3.0 11.0 0.00 0.04 0.04 73 1008.1
20260903231011 82 173 3.0 1.0 0.00 0.04 0.04 72 1007.3
20260903230519 82 183 3.0 14.0 0.00 0.04 0.04 73 1008.0
20260903230510 82 138 2.0 1.0 0.00 0.04 0.04 72 1007.2
20260903230045 82 155 4.0 14.0 0.00 0.04 0.04 73 1008.0
20260903230011 82 155 2.0 1.0 0.00 0.04 0.04 72 1007.3
20260903225523 81 197 2.0 10.0 0.00 0.04 0.04 73 1008.1
20260903225510 82 181 6.0 1.0 0.00 0.04 0.04 72 1007.2
20260903225028 81 138 4.0 13.0 0.00 0.04 0.04 73 1008.0
20260903225010 82 138 5.0 1.0 0.00 0.04 0.04 73 1007.2
20260903224543 81 165 3.0 13.0 0.00 0.04 0.04 73 1008.1
20260903224511 82 166 8.0 1.0 0.00 0.04 0.04 73 1007.3
20260903224021 81 162 3.0 11.0 0.01 0.04 0.04 74 1008.1
20260903224010 81 162 2.0 1.0 0.01 0.04 0.04 73 1007.2
20260903223519 81 108 4.0 13.0 0.01 0.04 0.04 73 1008.0
20260903223510 81 108 2.0 1.0 0.01 0.04 0.04 72 1007.1
20260903223048 81 182 3.0 13.0 0.01 0.04 0.04 73 1008.2
20260903223010 81 119 8.0 1.0 0.01 0.04 0.04 73 1007.3
20260903222523 81 153 2.0 10.0 0.01 0.04 0.04 75 1008.1
20260903222511 81 153 2.0 1.0 0.01 0.04 0.04 75 1007.3
20260903222022 80 136 4.0 10.0 0.01 0.04 0.04 74 1008.1
20260903222011 81 161 2.0 1.0 0.01 0.04 0.04 74 1007.3
20260903221540 80 162 3.0 9.0 0.01 0.04 0.04 74 1008.1
20260903221510 81 163 1.0 1.0 0.01 0.04 0.04 74 1007.2
20260903221019 81 140 2.0 9.0 0.01 0.04 0.04 74 1008.2
20260903221010 81 144 1.0 1.0 0.01 0.04 0.04 74 1007.3
20260903220520 81 163 3.0 9.0 0.01 0.04 0.04 75 1008.3
20260903220511 81 203 6.0 1.0 0.01 0.04 0.04 75 1007.4
20260903220057 81 152 3.0 8.0 0.01 0.04 0.04 76 1008.2
20260903220010 82 170 4.0 1.0 0.01 0.04 0.04 75 1007.4
20260903215527 81 165 2.0 9.0 0.01 0.04 0.04 76 1008.3
20260903215510 82 165 2.0 1.0 0.01 0.04 0.04 76 1007.5
20260903215023 82 157 2.0 9.0 0.01 0.04 0.04 73 1008.3
20260903215010 82 157 3.0 1.0 0.01 0.04 0.04 73 1007.4
20260903214544 82 172 4.0 9.0 0.01 0.04 0.04 74 1008.1
20260903214510 83 140 9.0 1.0 0.01 0.04 0.04 72 1007.3
20260903214027 82 164 3.0 7.0 0.00 0.03 0.03 70 1008.0
20260903214011 83 161 2.0 1.0 0.00 0.03 0.03 70 1007.1
20260903213524 82 147 3.0 7.0 0.00 0.03 0.03 71 1007.8
20260903213510 83 151 4.0 1.0 0.00 0.03 0.03 70 1006.9
20260903213042 82 157 1.0 11.0 0.00 0.03 0.03 71 1008.7
20260903213010 83 157 4.0 1.0 0.00 0.03 0.03 71 1007.9
20260903212519 82 186 2.0 12.0 0.00 0.03 0.03 71 1008.8
20260903212510 83 186 1.0 1.0 0.00 0.03 0.03 70 1008.0
20260903212019 82 184 5.0 12.0 0.00 0.03 0.03 71 1009.1
20260903212010 83 167 3.0 1.0 0.00 0.03 0.03 71 1008.2
20260903211542 82 177 5.0 12.0 0.00 0.03 0.03 73 1009.1
20260903211511 83 176 4.0 1.0 0.00 0.03 0.03 72 1008.2
20260903211018 82 221 2.0 10.0 0.00 0.03 0.03 72 1009.0
20260903211010 83 221 4.0 1.0 0.00 0.03 0.03 72 1008.1
20260903210518 82 88 2.0 6.0 0.00 0.03 0.03 75 1009.0
20260903210037 82 78 3.0 6.0 0.00 0.03 0.03 75 1009.1
20260903210010 83 78 5.0 1.0 0.00 0.03 0.03 74 1008.1
20260903205517 82 79 3.0 7.0 0.00 0.03 0.03 75 1009.0
20260903205510 83 80 6.0 1.0 0.00 0.03 0.03 75 1008.1
20260903205024 82 91 4.0 7.0 0.00 0.03 0.03 73 1009.1
20260903205011 83 91 2.0 1.0 0.00 0.03 0.03 73 1008.2
20260903204545 82 172 3.0 7.0 0.00 0.03 0.03 73 1009.0
20260903204511 83 172 2.0 1.0 0.00 0.03 0.03 72 1008.1
20260903204024 82 99 5.0 7.0 0.00 0.03 0.03 74 1009.0
20260903203518 82 101 4.0 9.0 0.00 0.03 0.03 74 1009.1
20260903203510 82 65 4.0 1.0 0.00 0.03 0.03 72 1008.3
20260903203048 82 90 4.0 9.0 0.00 0.03 0.03 73 1009.2
20260903202520 82 99 4.0 9.0 0.00 0.03 0.03 74 1009.2
20260903202018 81 0 1.0 7.0 0.00 0.03 0.03 76 1009.1
20260903202011 82 145 0.0 1.0 0.00 0.03 0.03 75 1008.3
20260903201538 81 151 3.0 10.0 0.00 0.03 0.03 79 1009.1
20260903201511 81 126 1.0 1.0 0.00 0.03 0.03 79 1008.3
20260903201028 80 122 3.0 11.0 0.00 0.03 0.03 76 1009.3
20260903201010 81 122 3.0 1.0 0.00 0.03 0.03 76 1008.4
20260903200523 80 168 3.0 11.0 0.00 0.03 0.03 77 1009.2
20260903200511 80 168 4.0 1.0 0.00 0.03 0.03 77 1008.4
20260903200043 80 149 2.0 9.0 0.00 0.03 0.03 79 1009.2
20260903200011 80 168 7.0 1.0 0.00 0.03 0.03 78 1008.4
20260903195524 79 182 2.0 8.0 0.00 0.03 0.03 79 1009.1
20260903195511 80 182 2.0 1.0 0.00 0.03 0.03 78 1008.3
20260903195020 79 213 2.0 8.0 0.00 0.03 0.03 78 1009.2
20260903195011 80 212 3.0 1.0 0.00 0.03 0.03 78 1008.4
20260903194543 79 0 0.0 6.0 0.00 0.03 0.03 79 1009.3
20260903194022 79 211 1.0 6.0 0.00 0.03 0.03 78 1009.5
20260903194010 80 211 1.0 1.0 0.00 0.03 0.03 77 1008.6
20260903193518 79 0 0.0 4.0 0.00 0.03 0.03 78 1009.5
20260903193511 80 159 0.0 0.0 0.00 0.03 0.03 77 1008.7
20260903193048 79 0 0.0 5.0 0.00 0.03 0.03 78 1009.7
20260903193011 80 159 0.0 0.0 0.00 0.03 0.03 77 1008.9
20260903192523 79 0 0.0 5.0 0.00 0.03 0.03 76 1009.8
20260903192023 79 164 1.0 4.0 0.00 0.03 0.03 77 1009.9
20260903192011 80 164 2.0 0.0 0.00 0.03 0.03 77 1009.1
20260903191542 79 0 0.0 4.0 0.00 0.03 0.03 78 1009.9
20260903191511 80 95 0.0 0.0 0.00 0.03 0.03 78 1009.2
20260903191021 79 95 2.0 4.0 0.00 0.03 0.03 81 1009.9
20260903191011 80 74 3.0 0.0 0.00 0.03 0.03 80 1009.2
20260903190521 79 0 0.0 0.0 0.00 0.03 0.03 78 1009.9
20260903190511 79 68 0.0 0.0 0.00 0.03 0.03 77 1009.2
20260903190043 79 0 0.0 0.0 0.00 0.03 0.03 80 1010.0
20260903190011 79 127 0.0 0.0 0.00 0.03 0.03 79 1009.2
20260903185520 79 0 0.0 0.0 0.00 0.03 0.03 80 1009.8
20260903185511 79 127 0.0 0.0 0.00 0.03 0.03 79 1009.1
20260903185020 79 0 0.0 0.0 0.00 0.03 0.03 78 1010.0
20260903185011 79 126 0.0 0.0 0.00 0.03 0.03 78 1009.2
20260903184538 79 0 0.0 0.0 0.00 0.03 0.03 79 1009.9
20260903184511 80 126 0.0 0.0 0.00 0.03 0.03 78 1009.1
20260903184020 79 0 0.0 0.0 0.00 0.03 0.03 79 1010.0
20260903184011 80 127 0.0 0.0 0.00 0.03 0.03 78 1009.2
20260903183519 79 0 0.0 0.0 0.00 0.03 0.03 75 1010.2
20260903183043 80 0 0.0 0.0 0.00 0.03 0.03 78 1009.9
20260903183010 80 127 0.0 0.0 0.00 0.03 0.03 77 1009.2
20260903182522 79 0 0.0 0.0 0.00 0.03 0.03 78 1010.0
20260903182511 80 127 0.0 0.0 0.00 0.03 0.03 77 1009.2
20260903182022 79 0 0.0 1.0 0.00 0.03 0.03 80 1010.0
20260903182011 80 126 0.0 0.0 0.00 0.03 0.03 79 1009.2
20260903181541 79 0 0.0 1.0 0.00 0.03 0.03 81 1009.9
20260903181511 80 124 0.0 0.0 0.00 0.03 0.03 80 1009.1
20260903181018 79 0 0.0 3.0 0.00 0.03 0.03 80 1010.0
20260903181011 79 124 0.0 0.0 0.00 0.03 0.03 79 1009.2
20260903180518 78 0 0.0 3.0 0.00 0.03 0.03 81 1010.1
20260903180511 79 114 0.0 0.0 0.00 0.03 0.03 81 1009.3
20260903180047 78 0 1.0 3.0 0.00 0.03 0.03 82 1010.0
20260903180011 78 95 0.0 0.0 0.00 0.03 0.03 82 1009.1
20260903175519 77 0 0.0 5.0 0.00 0.03 0.03 85 1010.1
20260903175020 77 0 0.0 6.0 0.00 0.03 0.03 82 1010.0
20260903175011 77 210 0.0 0.0 0.00 0.03 0.03 82 1009.3
20260903174539 77 168 0.0 6.0 0.00 0.03 0.03 80 1010.3
20260903174021 77 150 0.0 5.0 0.00 0.03 0.03 79 1010.4
20260903174011 78 150 4.0 0.0 0.00 0.03 0.03 79 1009.5
20260903173522 77 139 1.0 4.0 0.00 0.03 0.03 79 1010.6
20260903173510 78 139 0.0 0.0 0.00 0.03 0.03 79 1009.7
20260903173044 78 136 1.0 4.0 0.00 0.03 0.03 78 1010.7
20260903173011 78 136 2.0 0.0 0.00 0.03 0.03 78 1009.8
20260903172524 78 188 0.0 11.0 0.00 0.03 0.03 77 1010.8
20260903172511 78 188 0.0 1.0 0.00 0.03 0.03 77 1009.8
20260903172021 78 177 3.0 11.0 0.00 0.03 0.03 76 1011.0
20260903172011 79 177 2.0 1.0 0.00 0.03 0.03 76 1010.0
20260903171547 78 167 2.0 11.0 0.00 0.03 0.03 76 1010.9
20260903171511 79 188 2.0 1.0 0.00 0.03 0.03 76 1009.9
20260903171019 79 178 2.0 6.0 0.00 0.03 0.03 77 1010.8
20260903171011 79 178 2.0 1.0 0.00 0.03 0.03 76 1009.8
20260903170518 79 222 2.0 6.0 0.00 0.03 0.03 78 1010.7
20260903170511 79 221 4.0 1.0 0.00 0.03 0.03 78 1009.8
20260903170045 79 197 0.0 5.0 0.00 0.03 0.03 77 1010.8
20260903170011 79 197 2.0 0.0 0.00 0.03 0.03 77 1009.8
20260903165522 79 0 1.0 5.0 0.00 0.03 0.03 79 1010.7
20260903165511 79 184 0.0 0.0 0.00 0.03 0.03 79 1009.8
20260903165024 79 195 0.0 5.0 0.00 0.03 0.03 80 1010.8
20260903165011 79 195 4.0 0.0 0.00 0.03 0.03 80 1009.8
20260903164544 78 0 0.0 5.0 0.00 0.03 0.03 81 1010.6
20260903164511 79 183 0.0 0.0 0.00 0.03 0.03 80 1009.7
20260903164019 78 0 1.0 9.0 0.00 0.03 0.03 82 1010.8
20260903164011 78 183 0.0 1.0 0.00 0.03 0.03 82 1009.8
20260903163519 78 174 2.0 9.0 0.00 0.03 0.03 82 1010.8
20260903163511 78 174 1.0 1.0 0.00 0.03 0.03 81 1009.8
20260903163045 78 172 2.0 6.0 0.00 0.03 0.03 82 1010.8
20260903163011 78 171 6.0 1.0 0.00 0.03 0.03 82 1009.8
20260903162518 77 174 2.0 6.0 0.00 0.03 0.03 83 1010.7
20260903162512 78 174 3.0 1.0 0.00 0.03 0.03 82 1009.8
20260903162019 77 196 2.0 6.0 0.00 0.03 0.03 82 1010.8
20260903162011 78 196 3.0 1.0 0.00 0.03 0.03 82 1009.8
20260903161542 77 174 1.0 6.0 0.00 0.03 0.03 83 1010.8
20260903161511 77 174 2.0 1.0 0.00 0.03 0.03 83 1009.8
20260903161018 77 0 0.0 11.0 0.00 0.03 0.03 84 1010.7
20260903161011 77 224 0.0 1.0 0.00 0.03 0.03 83 1009.7
20260903160522 77 0 1.0 11.0 0.00 0.03 0.03 82 1010.6
20260903160511 77 163 0.0 1.0 0.00 0.03 0.03 81 1009.6
20260903160043 77 158 2.0 7.0 0.00 0.03 0.03 82 1010.7
20260903160011 77 157 4.0 1.0 0.00 0.03 0.03 81 1009.7
20260903155521 77 165 3.0 7.0 0.00 0.03 0.03 81 1010.8
20260903155021 78 176 3.0 7.0 0.00 0.03 0.03 81 1010.9
20260903155011 78 170 4.0 1.0 0.00 0.03 0.03 80 1010.0
20260903154542 78 182 2.0 5.0 0.00 0.03 0.03 81 1010.8
20260903154511 78 182 2.0 0.0 0.00 0.03 0.03 80 1009.9
20260903154019 78 199 2.0 5.0 0.00 0.03 0.03 81 1010.8
20260903154011 78 199 2.0 0.0 0.00 0.03 0.03 80 1009.9
20260903153519 78 224 2.0 6.0 0.00 0.03 0.03 82 1010.6
20260903153511 79 229 2.0 0.0 0.00 0.03 0.03 81 1009.7
20260903153039 78 0 2.0 6.0 0.00 0.03 0.03 82 1010.7
20260903153011 79 215 1.0 0.0 0.00 0.03 0.03 81 1009.7
20260903152523 78 181 3.0 5.0 0.00 0.03 0.03 81 1010.7
20260903152511 79 181 4.0 0.0 0.00 0.03 0.03 81 1009.8
20260903152024 78 187 0.0 5.0 0.00 0.03 0.03 82 1010.6
20260903152011 79 187 2.0 0.0 0.00 0.03 0.03 82 1009.7
20260903151551 78 0 0.0 5.0 0.00 0.03 0.03 83 1010.5
20260903151511 79 186 0.0 0.0 0.00 0.03 0.03 83 1009.6
20260903151018 78 0 1.0 5.0 0.00 0.03 0.03 83 1010.6
20260903151011 79 201 0.0 0.0 0.00 0.03 0.03 82 1009.7
20260903150518 78 0 0.0 5.0 0.00 0.03 0.03 82 1010.6
20260903150511 78 157 0.0 0.0 0.00 0.03 0.03 82 1009.7
20260903150011 78 157 1.0 0.0 0.00 0.03 0.03 82 1009.7
20260903145520 78 172 1.0 6.0 0.00 0.03 0.03 83 1010.6
20260903145511 78 171 0.0 0.0 0.00 0.03 0.03 83 1009.7
20260903145020 78 174 1.0 6.0 0.00 0.03 0.03 83 1010.6
20260903145011 78 163 2.0 1.0 0.00 0.03 0.03 83 1009.7